sat.trackr.live / text

‹ back to catalog

STARLINK-3257

NORAD 50203 · 2021-125AZ

PAYLOAD ACTIVE UNKNOWN

§ Identity

Operator
Country
US
Launch date
2021-12-18
Launch site
AFWTR
Launch vehicle
Mass (kg)
RCS (m²)

Purposes: comms

External: N2YO · Heavens-Above · Gunter

§ Orbital elements

Epoch: 2026-05-24T16:00:50.635008Z

Period
95.44 min
Inclination
53.2147°
Eccentricity
0.0001509
Mean motion
15.08838798 rev/d
Perigee alt
538.7 km
Apogee alt
540.8 km
Semi-major
6,917.9 km
B*
-5.2544e-6
RAAN
258.1312°
Arg perigee
89.7306°
Mean anomaly
270.3859°
Rev number
24,826

§ Raw data

STARLINK-32571 50203U 21125AZ  26144.66725272 -.00000372  00000+0 -52544-5 0  99932 50203  53.2147 258.1312 0001509  89.7306 270.3859 15.08838798248267

JSON: /api/v1/satellites/50203 · /tle

For live sub-satellite position, see the globe view (requires WebGL).

§ Visibility from observer

Set your observer location to see the next 7 days of passes ≥ 10°. The values pass through the URL so the page stays shareable.

No JS? Fill the form by hand. The geolocation button needs JavaScript.